Lancaster, OH

11:55 PM EDT on June 25, 2017 (GMT -0400)
Fairfield County

Weather History for KLHQ - November, 2011

Change the Weather History Date:

Tuesday, November 29, 2011

  Actual Average Record
Temperature  
Mean Temperature 46 °F -  
Max Temperature 57 °F 44 °F 69 °F (1990)
Min Temperature 35 °F 27 °F 10 °F (1955)
Degree Days  
Heating Degree Days 19    
Moisture  
Dew Point 42 °F    
Average Humidity 89    
Maximum Humidity 100    
Minimum Humidity 73    
Precipitation  
Precipitation 0.28 in - - ()
Sea Level Pressure  
Sea Level Pressure 29.66 in    
Wind  
Wind Speed 12 mph (SW)    
Max Wind Speed 18 mph    
Max Gust Speed 29 mph    
Visibility 8 miles    
Events Rain    
Averages and records for this station are not official NWS values.
T = Trace of Precipitation, MM = Missing Value Source: NWS Daily Summary

Daily Weather History Graph

Daily Weather History Graph

Search for Another Location

Airport or City:

Trip Planner

Search our weather history database for the weather conditions in past years. The results will help you decide how hot, cold, wet, or windy it might be!

Date:

Astronomy

Nov. 29, 2011 Rise Set
Actual Time 7:30 AM EST 5:07 PM EST
Civil Twilight 7:00 AM EST 5:37 PM EST
Nautical Twilight 6:27 AM EST 6:10 PM EST
Astronomical Twilight 5:54 AM EST 6:42 PM EST
Moon 11:16 AM EST (11/29) 9:59 PM EST (11/29)
Length of Visible Light 10h 36m
Length of Day
9h 36m
Waxing Crescent, 24% of the Moon is Illuminated
Nov 29
Waxing Crescent
Dec 2
First Quarter
Dec 10
Full
Dec 17
Last Quarter
Dec 24
New

Hourly Weather History & Observations

Time (EST) Temp. Windchill Dew Point Humidity Pressure Visibility Wind Dir Wind Speed Gust Speed Precip Events Conditions
12:53 AM 55.0 °F - 53.1 °F 93% 29.68 in 10.0 mi ENE 12.7 mph 21.9 mph 0.02 in Rain Light Rain
1:53 AM 55.9 °F - 54.0 °F 93% 29.63 in 10.0 mi ENE 18.4 mph - N/A   Scattered Clouds
2:53 AM 57.0 °F - 54.0 °F 89% 29.62 in 10.0 mi East 12.7 mph 23.0 mph N/A   Mostly Cloudy
3:53 AM 57.0 °F - 54.0 °F 89% 29.60 in 10.0 mi SSE 8.1 mph - 0.01 in   Overcast
4:08 AM 57.2 °F - 55.4 °F 94% 29.61 in 7.0 mi SW 5.8 mph - 0.00 in Rain Light Rain
4:15 AM 55.4 °F - 53.6 °F 94% 29.61 in 2.0 mi WSW 12.7 mph 18.4 mph 0.03 in Rain Heavy Rain
4:23 AM 53.6 °F - 51.8 °F 94% 29.62 in 3.0 mi WSW 11.5 mph 20.7 mph 0.04 in Rain Light Rain
4:35 AM 51.8 °F - 51.8 °F 100% 29.63 in 3.0 mi WSW 10.4 mph - 0.06 in Rain Light Rain
4:49 AM 51.8 °F - 51.8 °F 100% 29.62 in 3.0 mi SW 5.8 mph - 0.07 in Rain Light Rain
4:50 AM 52.0 °F - 51.1 °F 97% 29.61 in 4.0 mi SSW 5.8 mph - 0.07 in Rain Light Rain
5:53 AM 51.1 °F - 50.0 °F 96% 29.62 in 10.0 mi WSW 6.9 mph - 0.00 in   Overcast
6:16 AM 51.8 °F - 48.2 °F 88% 29.63 in 10.0 mi SW 6.9 mph - N/A   Overcast
6:28 AM 51.8 °F - 48.2 °F 88% 29.62 in 8.0 mi WSW 8.1 mph - 0.00 in Rain Light Rain
7:46 AM 46.4 °F 41.5 °F 44.6 °F 93% 29.64 in 10.0 mi SW 10.4 mph - N/A   Overcast
7:53 AM 46.9 °F - 45.0 °F 93% 29.64 in 10.0 mi SW 8.1 mph - N/A   Overcast
8:10 AM 46.4 °F 40.7 °F 44.6 °F 93% 29.64 in 4.0 mi WSW 12.7 mph 19.6 mph 0.01 in Rain Light Rain
8:38 AM 44.6 °F 38.4 °F 42.8 °F 93% 29.64 in 7.0 mi WSW 12.7 mph 23.0 mph 0.01 in   Overcast
8:53 AM 45.0 °F 40.1 °F 43.0 °F 93% 29.65 in 8.0 mi WSW 9.2 mph 20.7 mph 0.01 in   Overcast
9:14 AM 44.6 °F 38.8 °F 42.8 °F 93% 29.66 in 7.0 mi SW 11.5 mph - N/A   Overcast
9:53 AM 44.1 °F 37.4 °F 42.1 °F 93% 29.66 in 10.0 mi WSW 13.8 mph - 0.00 in   Overcast
10:53 AM 43.0 °F 36.0 °F 39.9 °F 89% 29.69 in 5.0 mi SW 13.8 mph 28.8 mph 0.00 in Rain Light Rain
11:01 AM 42.8 °F 35.1 °F 39.2 °F 87% 29.69 in 5.0 mi SW 16.1 mph 23.0 mph 0.00 in   Overcast
11:16 AM 42.8 °F 36.2 °F 39.2 °F 87% 29.70 in 3.0 mi SSW 12.7 mph 27.6 mph 0.01 in Rain Light Rain
11:53 AM 41.0 °F 33.9 °F 37.9 °F 89% 29.70 in 4.0 mi SW 12.7 mph - 0.05 in Rain Rain
12:05 PM 39.2 °F 32.5 °F 37.4 °F 93% 29.71 in 2.5 mi SSW 10.4 mph 19.6 mph 0.03 in Rain Rain
12:18 PM 39.2 °F 31.2 °F 37.4 °F 93% 29.69 in 4.0 mi SW 13.8 mph 19.6 mph 0.05 in Rain Rain
12:36 PM 39.2 °F 30.8 °F 37.4 °F 93% 29.68 in 6.0 mi SW 15.0 mph 27.6 mph 0.07 in Rain Light Rain
12:53 PM 39.9 °F 31.1 °F 36.0 °F 86% 29.68 in 10.0 mi SW 17.3 mph 26.5 mph 0.08 in Rain Light Rain
1:40 PM 42.8 °F 36.6 °F 37.4 °F 81% 29.65 in 10.0 mi SW 11.5 mph - 0.01 in   Overcast
1:53 PM 44.1 °F 38.1 °F 37.9 °F 79% 29.66 in 10.0 mi SSW 11.5 mph - 0.01 in   Mostly Cloudy
2:01 PM 42.8 °F 36.6 °F 37.4 °F 81% 29.65 in 10.0 mi SW 11.5 mph 19.6 mph N/A   Mostly Cloudy
2:53 PM 43.0 °F 38.2 °F 36.0 °F 76% 29.66 in 10.0 mi South 8.1 mph - N/A   Overcast
3:53 PM 42.1 °F 36.1 °F 34.0 °F 73% 29.67 in 10.0 mi SSW 10.4 mph 17.3 mph N/A   Overcast
4:53 PM 41.0 °F 33.9 °F 34.0 °F 76% 29.68 in 10.0 mi SSW 12.7 mph - N/A   Overcast
5:53 PM 41.0 °F 34.3 °F 34.0 °F 76% 29.67 in 10.0 mi SW 11.5 mph - N/A   Overcast
6:53 PM 39.9 °F 31.4 °F 33.1 °F 77% 29.68 in 10.0 mi SW 16.1 mph 24.2 mph N/A   Mostly Cloudy
7:53 PM 39.0 °F 31.8 °F 33.1 °F 79% 29.68 in 10.0 mi SW 11.5 mph 19.6 mph N/A   Scattered Clouds
8:36 PM 37.4 °F 29.3 °F 33.8 °F 87% 29.67 in 10.0 mi SW 12.7 mph - 0.00 in Rain Light Rain
8:53 PM 37.0 °F 28.1 °F 34.0 °F 89% 29.69 in 10.0 mi SW 15.0 mph 20.7 mph 0.00 in Rain Light Rain
9:07 PM 37.4 °F 29.8 °F 33.8 °F 87% 29.68 in 7.0 mi SW 11.5 mph - 0.01 in   Overcast
9:53 PM 36.0 °F 29.0 °F 34.0 °F 93% 29.69 in 9.0 mi SSW 9.2 mph - 0.03 in Rain Light Rain
10:44 PM 35.6 °F 29.2 °F 33.8 °F 93% 29.67 in 10.0 mi SW 8.1 mph - 0.01 in   Overcast
11:11 PM 35.6 °F 28.0 °F 32.0 °F 87% 29.67 in 10.0 mi WSW 10.4 mph 20.7 mph N/A   Overcast
11:22 PM 35.6 °F 27.5 °F 32.0 °F 87% 29.67 in 10.0 mi WSW 11.5 mph 20.7 mph N/A   Overcast
11:53 PM 35.1 °F 26.9 °F 33.1 °F 92% 29.68 in 9.0 mi SW 11.5 mph 19.6 mph N/A   Overcast